星链-2400 (STARLINK-2400 )

导读 | 豆包AI

STARLINK-2400是美国太空探索技术公司(SpaceX)星链(Starlink)星座的组成卫星,于2021年3月11日发射升空,属于星链计划的第二批组网卫星,旨在为全球提供高速低延迟互联网宽带服务,星链系统依托近地轨道卫星组网,目前已完成多批次卫星发射,推动全球卫星互联网覆盖进程。

基本信息
目录编号:
47817
目录名称:
STARLINK-2400
国际标识:
2021-018AG
轨道中心:
EARTH
卫星名称:
星链-2400
卫星全名:
星链-2400 (STARLINK-2400 )
卫星状态:
在轨 (已飞行1829 天)
发射日期:
2021-03-11 UTC
国别 :
美国 (US)
星等 :
--
轨道信息
数据来源 国际轨道数据
星历时间: 2026-03-14T03:03:21+0800
18小时前
查看轨道信息
半长轴: 6853.437km
偏心率: 0.0002644
轨道倾角: 53.157°
近地点辐角 55.842°
升交点赤经 224.068°
平近点角 304.284°
近地点: 473.487km
远地点: 477.113km
周期: 94.107分钟
每日圈数: 15.301716
详细信息
固有亮度:
5
最大亮度:
2.5
卫星平台:
Starlink V1.0
覆盖范围:
全球
运营商:
太空探索技术公司
运营商所在国:
美国
制造商(研发单位):
太空探索技术公司
制造商所在国:
美国
使用方式:
暂无
卫星简介
星链(Starlink)计划是由太空探索技术公司(SpaceX)提出的一个巨型低轨卫星互联网星座项目,计划在2019年至2024年间在太空搭建由约1.2万颗卫星组成的“星链”网络,其中1584颗将部署在地球上空550千米处的近地轨道,并从2020年开始工作。该卫星仍在工作。
2D轨道图
3D轨道图
轨道高度分析图
轨道倾角分析图
轨道综合分析图
查看轨道综合分析图